If you wish to contribute or participate in the discussions about articles you are invited to join SKYbrary as a registered user

 Actions

Chernivtsi International Airport

From SKYbrary Wiki

UKLN
Airport
ICAO: UKLN
Summary
Name Chernivtsi International Airport
Region Europe
Territory Ukraine UA.gif
Location Chernivtsi
Serving
Coordinates 48° 16' 0.68" N, 25° 58' 1.98" E
Runways
Designator Length Width Surface ROPS
15/33 2216 m7,270.341 ft
42 m137.795 ft
ASP /


METAR
Observation UKLN 130700Z 00000MPS CAVOK 14/05 Q1022 R33/09//70 NOSIG
Station Chernovsty
Date/Time 13 October 2019 07:00:00
Wind direction
Wind speed kts
Lowest cloud amount clouds and visibility OK
Temperature 14°C
Dew point 5°C
Humidity 54%
QNH 1022 hPa
Weather condition n/a

Chernivtsi International Airport (IATA: CWC) is an airport in the city of Chernivtsi in western Ukraine.